Regional Weather Roundup
Issued by NWS

Home | Current Version | Previous Version | Text Only | Print | Product List | Glossary Off
Versions: 1 2 3 4 5 6 7 8 9 10 11 12 13 14 15 16 17 18 19 20 21 22 23 24 25 26 27 28 29 30 31 32 33 34 35 36 37 38 39 40 41 42 43 44 45 46 47 48 49 50

000
ASUS43 KTOP 310108
RWRKS

WEATHER ROUNDUP FOR KANSAS
NATIONAL WEATHER SERVICE GOODLAND KS
800 PM CDT SAT AUG 30 2014

NOTE:  "FAIR" INDICATES FEW OR NO CLOUDS BELOW 12,000 FEET WITH NO
SIGNIFICANT WEATHER AND/OR OBSTRUCTIONS TO VISIBILITY.

KSZ001>006-013>018-027>032-041>047-310200-
NORTHWEST KANSAS

CITY           SKY/WX    TMP DP  RH WIND       PRES   REMARKS
GOODLAND       CLEAR     79  54  41 S8        29.86S
HAYS           CLEAR     84  55  37 S16       29.85S
HILL CITY      CLEAR     85  56  37 S10       29.83F
RUSSELL        CLEAR     82  59  45 SE12      29.85S
$$

KSZ061>065-074>080-084>089-310200-
SOUTHWEST KANSAS

CITY           SKY/WX    TMP DP  RH WIND       PRES   REMARKS
DODGE CITY     CLEAR     83  51  33 SE14      29.90S
ELKHART          N/A     86  52  31 S14         N/A
GARDEN CITY    CLEAR     82  55  39 SE21      29.87S
GREAT BEND     CLEAR     84  55  37 S10       29.87S
LIBERAL        MOCLDY    88  54  31 SE18G24   29.89R
PRATT          CLEAR     82  54  36 S10       29.91R
$$

KSZ066>073-081>083-090>101-310200-
SOUTHEAST KANSAS

CITY           SKY/WX    TMP DP  RH WIND       PRES   REMARKS
CHANUTE        CLEAR     84  59  42 CALM      29.88S
COFFEYVILLE    CLEAR     86  63  45 CALM      29.87R
HUTCHINSON     CLEAR     83  59  44 SE3       29.88S
MEDICINE LODGE   N/A     85  60  42 SE5       29.88R
NEWTON         CLEAR     84  55  37 S5        29.92S
PARSONS        CLEAR     81  67  62 CALM      29.88S
WICHITA INTL   PTCLDY    84  59  42 SE7       29.87S
WICHITA JABRA  CLEAR     83  59  44 S7        29.88S
WICHITA MCCONL CLEAR     83  60  45 SE6       29.89S
WINFIELD       CLEAR     84  64  50 SE3       29.89S
$$

KSZ007>012-019>026-033>040-048>060-102>105-310200-
NORTHEAST KANSAS

CITY           SKY/WX    TMP DP  RH WIND       PRES   REMARKS
CONCORDIA      CLEAR     77  66  68 S6        29.85F
EMPORIA        CLEAR     81  62  52 SE7       29.88S
LAWRENCE       CLEAR     80  68  66 E6        29.88R
MANHATTAN      PTCLDY    85  64  49 E6        29.86S
MARYSVILLE     CLEAR     79  66  65 SE5       29.86S
OLATHE IND     CLEAR     82  64  54 E6        29.90S
OLATHE EXE     CLEAR     81  65  58 E5        29.90R
SALINA         CLEAR     86  58  38 S7        29.86S
TOPEKA BILLARD CLEAR     83  67  58 E5        29.87S
TOPEKA FORBES  CLEAR     81  66  60 SE6       29.88R
$$



USA.gov is the U.S. government's official web portal to all federal, state and local government web resources and services.